CDT,Max TemperatureF,Mean TemperatureF,Min TemperatureF,Max Dew PointF,MeanDew PointF,Min DewpointF,Max Humidity, Mean Humidity, Min Humidity, Max Sea Level PressureIn, Mean Sea Level PressureIn, Min Sea Level PressureIn, Max VisibilityMiles, Mean VisibilityMiles, Min VisibilityMiles, Max Wind SpeedMPH, Mean Wind SpeedMPH, Max Gust SpeedMPH,PrecipitationIn, CloudCover, Events, WindDirDegrees
2012-10-1,79,66,55,57,54,50,100,69,37,29.98,29.93,29.88,10,9,6,25,9,32,0.01,0,Thunderstorm,355
2012-10-2,75,63,53,51,44,35,86,53,24,30.05,29.98,29.92,10,10,10,13,10,20,0.00,1,,6
2012-10-3,82,67,52,53,48,42,83,54,30,29.95,29.91,29.85,10,10,10,24,12,31,0.00,0,,180
2012-10-4,68,62,57,57,49,43,90,63,54,30.19,30.10,29.91,10,10,10,25,16,33,0.00,5,,46
2012-10-5,64,57,48,45,42,36,67,58,44,30.22,30.16,30.10,10,10,10,21,15,28,0.00,5,,51
2012-10-6,50,46,44,35,32,28,68,58,46,30.37,30.28,30.20,10,10,10,22,16,26,0.00,7,,51
2012-10-7,48,42,37,34,31,28,83,61,46,30.38,30.32,30.25,10,10,10,10,6,,0.00,4,,42
2012-10-8,64,48,32,39,33,28,85,58,31,30.25,30.13,30.00,10,10,10,21,10,26,0.00,0,,197
2012-10-9,80,64,48,52,45,40,89,59,28,30.05,29.91,29.82,10,10,8,23,14,29,0.00,0,,172
2012-10-10,64,57,50,47,41,34,71,56,40,30.24,30.16,30.08,10,10,3,22,16,28,0.00,6,,90
2012-10-11,81,70,59,67,58,46,93,75,56,30.14,30.07,29.98,10,8,2,23,10,30,0.00,6,,202
2012-10-12,82,74,66,70,67,61,100,86,67,30.17,30.07,29.97,10,9,3,20,12,22,0.03,5,Rain-Thunderstorm,157
2012-10-13,87,74,57,71,59,29,90,67,17,29.95,29.83,29.66,10,10,5,31,21,40,0.05,4,Rain-Thunderstorm,208
2012-10-14,82,68,54,46,40,36,65,43,21,30.15,30.03,29.84,10,9,2,21,12,25,0.00,0,,329
2012-10-15,86,65,46,49,43,39,80,50,20,30.15,30.04,29.87,10,5,0,21,8,26,0.00,0,,233
2012-10-16,87,72,57,57,51,46,73,53,30,29.86,29.67,29.49,10,10,10,28,15,32,0.00,0,,189
2012-10-17,79,66,51,59,40,25,84,43,16,29.86,29.62,29.40,10,10,10,30,18,44,0.00,0,,347
2012-10-18,71,56,41,28,23,18,58,33,14,30.07,29.99,29.88,10,10,10,20,10,25,0.00,0,,326
2012-10-19,79,58,39,35,26,19,60,35,13,30.05,29.95,29.83,10,10,10,17,10,23,0.00,0,,267
2012-10-20,84,68,54,52,43,35,67,45,26,29.83,29.73,29.66,10,10,10,16,12,21,0.00,0,,178
2012-10-21,96,79,62,64,57,43,90,57,16,29.73,29.68,29.62,10,10,7,31,16,37,0.00,0,,198
2012-10-22,82,74,64,64,62,55,90,69,38,29.89,29.80,29.73,10,10,9,32,19,40,0.01,1,Rain,189
2012-10-23,90,77,64,67,64,60,100,75,38,29.87,29.80,29.73,10,9,3,28,18,36,0.00,1,,195
2012-10-24,84,74,64,67,65,61,100,78,53,29.89,29.78,29.67,10,9,4,30,19,36,0.00,3,,188
2012-10-25,69,58,44,60,43,33,84,62,41,30.24,29.97,29.66,10,10,10,31,20,39,0.00,2,,19
2012-10-26,53,44,35,32,26,21,82,57,31,30.48,30.37,30.25,10,10,10,24,15,31,0.00,1,,28
2012-10-27,52,39,26,26,22,19,81,55,28,30.42,30.33,30.22,10,10,10,8,5,,0.00,0,,59
2012-10-28,62,46,30,28,24,20,72,47,24,30.33,30.26,30.19,10,10,10,12,4,,0.00,0,,172
2012-10-29,69,52,36,31,29,27,73,46,23,30.28,30.19,30.09,10,10,9,17,10,25,0.00,0,Snow,186
2012-10-30,80,60,39,37,34,29,67,43,20,30.09,30.00,29.89,10,10,2,15,8,24,0.00,0,,237
2012-10-31,78,61,45,40,38,35,74,47,24,30.08,30.01,29.96,10,10,10,14,9,,0.00,0,,41